Location: Newark
(40.0667°N, 18.0500°E)
Time: 02:34:57
(UTC+00:00)

N. Korean satellite - Pass Details

Date: 28 January 2020
Orbit: 456 x 505 km, 97.2° (Epoch: 26 February)

Event Time Altitude Azimuth Distance (km) Brightness Sun altitude
Rises 16:35:30 0° 199° (SSW) 2,459 10.7 -7.0°
Reaches altitude 10° 16:37:56 10° 218° (SW) 1,591 10.1 -7.4°
Maximum altitude 16:40:27 19° 266° (W) 1,146 9.7 -7.9°
Drops below altitude 10° 16:42:59 10° 313° (NW) 1,607 9.6 -8.3°
Sets 16:45:29 0° 332° (NNW) 2,492 10.3 -8.8°
